Dickinson, ND

12:54 AM MDT on March 30, 2017 (GMT -0600)
Dickinson Municipal

Weather History for KDIK - June, 2013

Change the Weather History Date:

Tuesday, June 11, 2013

  Actual Average Record
Temperature  
Mean Temperature 66 °F 61 °F  
Max Temperature 76 °F 74 °F 98 °F (1921)
Min Temperature 55 °F 48 °F 34 °F (1969)
Degree Days  
Heating Degree Days 0 5  
Month to date heating degree days 89 72  
Since 1 June heating degree days 89 72  
Since 1 July heating degree days 8519 8512  
Cooling Degree Days 1 1  
Month to date cooling degree days 2 11  
Year to date cooling degree days 11 21  
Since 1 June cooling degree days 2 11  
Growing Degree Days 15 (Base 50)    
Moisture  
Dew Point 50 °F    
Average Humidity 56    
Maximum Humidity 77    
Minimum Humidity 35    
Precipitation  
Precipitation 0.31 in 0.11 in 2.29 in (1932)
Month to date precipitation 0.84 1.14  
Year to date precipitation 7.93 6.25  
Sea Level Pressure  
Sea Level Pressure 29.90 in    
Wind  
Wind Speed 10 mph (ESE)    
Max Wind Speed 25 mph    
Max Gust Speed 32 mph    
Visibility 9 miles    
Events Rain , Thunderstorm    
T = Trace of Precipitation, MM = Missing Value Source: NWS Daily Summary

Daily Weather History Graph

Daily Weather History Graph

Search for Another Location

Airport or City:

Trip Planner

Search our weather history database for the weather conditions in past years. The results will help you decide how hot, cold, wet, or windy it might be!

Date:

Astronomy

Jun. 11, 2013 Rise Set
Actual Time 4:56 AM MDT 8:45 PM MDT
Civil Twilight 4:17 AM MDT 9:24 PM MDT
Nautical Twilight 3:24 AM MDT 10:18 PM MDT
Astronomical Twilight 2:07 AM MDT 11:35 PM MDT
Moon 7:50 AM MDT (6/11) 10:39 PM MDT (6/11)
Length of Visible Light 17h 07m
Length of Day
15h 48m
Waxing Crescent, 8% of the Moon is Illuminated
Jun 11
Waxing Crescent
Jun 16
First Quarter
Jun 23
Full
Jun 29
Last Quarter
Jul 8
New

Hourly Weather History & Observations

Time (MDT) Temp. Dew Point Humidity Pressure Visibility Wind Dir Wind Speed Gust Speed Precip Events Conditions
12:56 AM 59.0 °F 51.1 °F 75% 29.88 in 10.0 mi East 3.5 mph - N/A   Partly Cloudy
1:56 AM 57.0 °F 50.0 °F 77% 29.85 in 10.0 mi East 4.6 mph - N/A   Clear
2:56 AM 55.9 °F 48.9 °F 77% 29.86 in 10.0 mi ESE 4.6 mph - N/A   Clear
3:56 AM 55.9 °F 48.9 °F 77% 29.88 in 10.0 mi Calm Calm - N/A   Clear
4:56 AM 55.9 °F 48.9 °F 77% 29.88 in 10.0 mi ENE 3.5 mph - 0.00 in   Clear
5:56 AM 55.0 °F 48.9 °F 80% 29.89 in 10.0 mi East 4.6 mph - N/A   Clear
6:56 AM 62.1 °F 51.1 °F 67% 29.89 in 10.0 mi ESE 8.1 mph - N/A   Clear
7:56 AM 64.9 °F 51.1 °F 61% 29.90 in 10.0 mi SSE 12.7 mph - N/A   Partly Cloudy
8:56 AM 68.0 °F 51.1 °F 55% 29.91 in 10.0 mi SSE 11.5 mph - N/A   Clear
9:56 AM 70.0 °F 48.9 °F 47% 29.91 in 10.0 mi SE 13.8 mph - N/A   Overcast
10:56 AM 73.0 °F 48.9 °F 42% 29.90 in 10.0 mi East 11.5 mph 19.6 mph N/A   Mostly Cloudy
11:56 AM 73.9 °F 48.0 °F 40% 29.90 in 10.0 mi East 13.8 mph - N/A   Overcast
12:56 PM 75.0 °F 46.0 °F 36% 29.89 in 10.0 mi ESE 16.1 mph 25.3 mph N/A   Scattered Clouds
1:56 PM 73.9 °F 45.0 °F 35% 29.88 in 10.0 mi ESE 17.3 mph - N/A   Overcast
2:56 PM 75.9 °F 48.0 °F 37% 29.87 in 10.0 mi East 16.1 mph - N/A   Scattered Clouds
3:56 PM 75.9 °F 48.0 °F 37% 29.86 in 10.0 mi East 17.3 mph 25.3 mph N/A   Clear
4:56 PM 72.0 °F 48.0 °F 43% 29.87 in 10.0 mi East 15.0 mph 21.9 mph N/A   Overcast
5:56 PM 72.0 °F 48.0 °F 43% 29.86 in 10.0 mi ESE 15.0 mph - N/A   Overcast
6:56 PM 70.0 °F 51.1 °F 51% 29.85 in 10.0 mi East 10.4 mph - N/A   Mostly Cloudy
7:56 PM 66.9 °F 51.1 °F 57% 29.87 in 10.0 mi East 9.2 mph - 0.00 in Rain Light Rain
8:56 PM 63.0 °F 54.0 °F 72% 29.88 in 10.0 mi East 6.9 mph - 0.00 in Rain Light Rain
9:56 PM 62.1 °F 54.0 °F 75% 29.90 in 10.0 mi ESE 8.1 mph - 0.00 in Rain Light Rain
10:39 PM 60.8 °F 51.8 °F 72% 30.02 in 5.0 mi WSW 20.7 mph 32.2 mph 0.06 in Rain , Thunderstorm Heavy Thunderstorms and Rain
10:43 PM 60.8 °F 51.8 °F 72% 30.02 in 3.0 mi SW 13.8 mph - 0.12 in Rain , Thunderstorm Heavy Thunderstorms and Rain
10:56 PM 60.1 °F 50.0 °F 69% 29.96 in 4.0 mi NNW 4.6 mph - 0.21 in Rain , Thunderstorm Heavy Thunderstorms and Rain
11:23 PM 57.2 °F 53.6 °F 88% 30.01 in 10.0 mi WNW 5.8 mph - 0.01 in Rain Light Rain
11:56 PM 57.9 °F 53.1 °F 84% 29.95 in 6.0 mi North 8.1 mph - 0.08 in Rain Rain